Location: Chuathbaluk
(61.5726°N, 159.2454°W)
Time: 22:48:59
(UTC+00:00)

Explorer 7 - Pass Details

Date: 07 December 2021
Orbit: 483 x 674 km, 50.3° (Epoch: 21 January)

Event Time Altitude Azimuth Distance (km) Brightness Sun altitude
Exits shadow 16:42:56 - 214° (SW) 2,136 9.6 -18.2°
Reaches altitude 10° 16:43:55 10° 205° (SSW) 1,867 9.4 -18.1°
Maximum altitude 16:46:28 16° 168° (SSE) 1,500 9.3 -17.8°
Drops below altitude 10° 16:48:57 10° 131° (SE) 1,798 10.4 -17.5°
Sets 16:51:48 0° 109° (ESE) 2,651 12.1 -17.1°
